Main page
METAR-TAF:

METAR-TAF

Airports :

Clearwater Air Park

Clearwater, Florida, United States

latitude: 27-58-36N, longitude: 082-45-31W, elevation: 72 ft

Current weather observation

The report was made 15 minutes ago, at 02:15 UTC
Calm wind
Temperature 79°F
Humidity 74%
Pressure 30.03 in. Hg
Visibility: 10 miles
Clear sky

METAR: KCLW 260215Z AUTO 00000KT 10SM CLR 26/21 A3003 RMK AO2

Time: 22:30 (02:30 UTC)


TAF: missing

Weather observations and forecasts of more than 4000 airports (METAR and TAF reports).

The available stations are represented by yellow and red dots on the map.

Hover mouse over dot to see the name of the station.

Then click to see weather observations and forecasts.

To change the map : click on the green buttons with a black cross to zoom in, on the green button with a dash to zoom out, or on the green arrows for adjacent maps.


METAR-TAF: